Showing default

OPS 5712 (P/L 152), 2873

Orbit data source: Space-Track

OPS 5712 (P/L 152), 2873 is an American payload satellite in LEO that was launched on Wed, 31 May 1967 UTC via a THOR SLV-2 AGENA D launch vehicle from the Air Force Western Test Range (AFWTR). Payload-class satellites include a variety of spacecraft equipped with specific instruments for various scientific and technological missions. These include communications satellites like Starlink; space stations such as the ISS; scientific satellites like the Hubble; Earth observation satellites from companies like Planet Labs, Umbra, and HawkEye 360; GPS; miniature CubeSats for education and research; and military/defense satellites.

Loading next visibility...
Identifier
2873, 1967-053G
Orbit
LEO
Country
Flag of USUS
Related business
Manufacturer
NRL
Mission
Spacecraft
Bus & Motor
NRL 24", Unknown motor
Mass
52 kg wet, 52 kg dry
Launch date (UTC)
1967-05-31 (59 years ago)
Launch vehicle
THOR SLV-2 AGENA D
Launch site
Air Force Western Test Range (AFWTR)
Object type
Payload
Rocket body
Debris
Shape & HBR
Unknown
Radar Cross Section
Medium (>0.1 m² and <1 m²)

Expand to show TLE details & history
Last TLE update: 6 hours ago

TLE from 6 hours ago
0 OPS 5712 (P/L 152)
1 02873U 67053G   26101.21282889  .00000040  00000-0  65465-4 0  9995
2 02873  69.9750 193.9893 0010310 247.8592 136.0858 13.98513140999151
Epoch: 2026-04-11T05:06Z
TLE epoch observation values (Epoch: 2026-04-11T05:06:28.416Z)
Latitude
22.51857°
Longitude
-73.41943°
Altitude
906.498 km
Speed
7.398 km/s
True Right ascension
13h 30m 32s
True Declination
22° 23' 59"
Sunlit
Object was in full shadow at epoch
Visualization orbit readout
Latitude
Unknown
Longitude
Unknown
Altitude
Unknown
Speed
Unknown
Apparent Right ascension
Unknown
Apparent Declination
Unknown
Sunlit
N/A
Visualization observer readout
Local Sidereal Time
17:50:14
Azimuth
Unknown
Elevation
Unknown
Doppler factor
Unknown
Orbital elements
Apogee altitude
904.492 km
Perigee altitude
889.491 km
Semi-major axis
7,275.129 km
Eccentricity
0.00103
Inclination
69.975°
RAAN
193.9893°
Arg. of periapsis
247.8592°
True anomaly
136.16767°
Mean anomaly
136.0858°
Eccentric anomaly
136.12674°
Mean motion
3.4977 °/min
Orbital period
102.92 mins
BSTAR
0.000065465
Loading maneuver chart data...
Computing Atmospheric mass density...
Loading historical data...
Loading historical data...
Loading historical data...
Loading historical data...
Loading historical data...
Loading historical data...
Loading historical data...

Documentation

Showing up to 5 results
|